Location: Altavilla Irpina
(41.0000°N, 14.7833°E)
Time: 01:58:17
(UTC+00:00)

Cosmos 1825 Rocket - Pass Details

Date: 19 May 2025
Orbit: 597 x 624 km, 82.5° (Epoch: 23 June)

Event Time Altitude Azimuth Distance (km) Brightness Sun altitude
Rises 19:00:08 0° 355° (N) 2,860 7.6 -7.9°
Reaches altitude 10° 19:02:22 10° 358° (N) 1,950 6.7 -8.3°
Maximum altitude 19:06:39 64° 81° (E) 664 3.5 -8.9°
Drops below altitude 10° 19:10:53 10° 163° (SSE) 1,929 5.6 -9.6°
Enters shadow 19:11:29 - 164° (SSE) 2,172 5.9 -9.7°
